| time (UTC) | temp F | wind direction | speed knots | gust knots | rain 1hr in | rain 24hr in | rain mn in | humidity % | barometer mb |
| 20260831053502 | 70 | 100 | 7.8 | 0.0 | 0.00 | 0.00 | 0.00 | 53 | 1018.0 |
| 20260831050503 | 66 | 90 | 6.1 | 0.0 | 0.00 | 0.00 | 0.00 | 60 | 1018.0 |
| 20260831043502 | 64 | 90 | 6.1 | 0.0 | 0.00 | 0.00 | 0.00 | 64 | 1018.0 |
| 20260831040502 | 64 | 80 | 7.0 | 0.0 | 0.00 | 0.00 | 0.00 | 64 | 1018.0 |
| 20260831033502 | 66 | 80 | 5.2 | 0.0 | 0.00 | 0.00 | 0.00 | 56 | 1017.0 |
| 20260831030502 | 66 | 80 | 5.2 | 0.0 | 0.00 | 0.00 | 0.00 | 56 | 1017.0 |
| 20260831023503 | 66 | 80 | 4.3 | 0.0 | 0.00 | 0.00 | 0.00 | 56 | 1018.0 |
| 20260831020503 | 68 | 80 | 6.1 | 0.0 | 0.00 | 0.00 | 0.00 | 53 | 1018.0 |
| 20260831013501 | 68 | 80 | 5.2 | 0.0 | 0.00 | 0.00 | 0.00 | 53 | 1018.0 |
| 20260831010502 | 70 | 1.7 | 0.0 | 0.00 | 0.00 | 0.00 | 50 | 1018.0 | |
| 20260831003502 | 70 | 160 | 4.3 | 0.0 | 0.00 | 0.00 | 0.00 | 50 | 1018.0 |
| 20260831000502 | 72 | 160 | 5.2 | 0.0 | 0.00 | 0.00 | 0.00 | 47 | 1018.0 |
| 20260830233502 | 73 | 160 | 5.2 | 0.0 | 0.00 | 0.00 | 0.00 | 44 | 1018.0 |
| 20260830230502 | 72 | 160 | 6.1 | 0.0 | 0.00 | 0.00 | 0.00 | 50 | 1018.0 |
| 20260830223502 | 72 | 150 | 5.2 | 0.0 | 0.00 | 0.00 | 0.00 | 50 | 1018.0 |
| 20260830220502 | 72 | 110 | 5.2 | 0.0 | 0.00 | 0.00 | 0.00 | 53 | 1018.0 |
| 20260830213502 | 70 | 90 | 7.0 | 0.0 | 0.00 | 0.00 | 0.00 | 57 | 1018.0 |
| 20260830210502 | 70 | 100 | 7.0 | 0.0 | 0.00 | 0.00 | 0.00 | 57 | 1018.0 |
| 20260830203502 | 70 | 80 | 6.1 | 0.0 | 0.00 | 0.00 | 0.00 | 57 | 1018.0 |
| 20260830200502 | 75 | 210 | 1.7 | 0.0 | 0.00 | 0.00 | 0.00 | 44 | 1017.0 |
| 20260830193501 | 75 | 0.9 | 0.0 | 0.00 | 0.00 | 0.00 | 44 | 1017.0 | |
| 20260830190502 | 75 | 1.7 | 0.0 | 0.00 | 0.00 | 0.00 | 44 | 1017.0 | |
| 20260830183502 | 77 | 200 | 2.6 | 0.0 | 0.00 | 0.00 | 0.00 | 42 | 1017.0 |
| 20260830180502 | 77 | 160 | 4.3 | 0.0 | 0.00 | 0.00 | 0.00 | 42 | 1017.0 |
| 20260830173503 | 79 | 170 | 6.1 | 0.0 | 0.00 | 0.00 | 0.00 | 39 | 1017.0 |
| 20260830170502 | 79 | 160 | 6.1 | 0.0 | 0.00 | 0.00 | 0.00 | 45 | 1017.0 |
| 20260830163502 | 81 | 140 | 7.8 | 0.0 | 0.00 | 0.00 | 0.00 | 45 | 1016.0 |
| 20260830160503 | 81 | 140 | 7.8 | 0.0 | 0.00 | 0.00 | 0.00 | 45 | 1016.0 |
| 20260830153502 | 82 | 140 | 8.7 | 0.0 | 0.00 | 0.00 | 0.00 | 40 | 1017.0 |
| 20260830150502 | 84 | 140 | 9.6 | 0.0 | 0.00 | 0.00 | 0.00 | 37 | 1017.0 |
| 20260830143503 | 84 | 150 | 9.6 | 0.0 | 0.00 | 0.00 | 0.00 | 37 | 1016.0 |
| 20260830140502 | 86 | 170 | 5.2 | 0.0 | 0.00 | 0.00 | 0.00 | 35 | 1016.0 |
| 20260830133501 | 86 | 150 | 6.1 | 0.0 | 0.00 | 0.00 | 0.00 | 38 | 1017.0 |
| 20260830130502 | 86 | 170 | 5.2 | 0.0 | 0.00 | 0.00 | 0.00 | 35 | 1017.0 |
| 20260830123501 | 84 | 190 | 7.0 | 0.0 | 0.00 | 0.00 | 0.00 | 37 | 1017.0 |
| 20260830120501 | 84 | 210 | 4.3 | 0.0 | 0.00 | 0.00 | 0.00 | 37 | 1017.0 |
| 20260830113503 | 84 | 6.1 | 0.0 | 0.00 | 0.00 | 0.00 | 37 | 1017.0 | |
| 20260830110502 | 82 | 90 | 6.1 | 0.0 | 0.00 | 0.00 | 0.00 | 42 | 1018.0 |
| 20260830103502 | 82 | 1.7 | 0.0 | 0.00 | 0.00 | 0.00 | 45 | 1018.0 | |
| 20260830100502 | 81 | 4.3 | 0.0 | 0.00 | 0.00 | 0.00 | 48 | 1018.0 | |
| 20260830093502 | 79 | 140 | 4.3 | 0.0 | 0.00 | 0.00 | 0.00 | 51 | 1018.0 |
| 20260830090502 | 77 | 80 | 5.2 | 0.0 | 0.00 | 0.00 | 0.00 | 54 | 1019.0 |
| 20260830083501 | 77 | 150 | 2.6 | 0.0 | 0.00 | 0.00 | 0.00 | 54 | 1019.0 |
| 20260830080503 | 75 | 1.7 | 0.0 | 0.00 | 0.00 | 0.00 | 57 | 1019.0 | |
| 20260830073502 | 73 | 1.7 | 0.0 | 0.00 | 0.00 | 0.00 | 61 | 1019.0 | |
| 20260830070502 | 72 | 1.7 | 0.0 | 0.00 | 0.00 | 0.00 | 65 | 1019.0 | |
| 20260830063502 | 70 | 270 | 2.6 | 0.0 | 0.00 | 0.00 | 0.00 | 64 | 1018.0 |
| 20260830060502 | 66 | 300 | 2.6 | 0.0 | 0.00 | 0.00 | 0.00 |